Home > Weather > Zaporizhia > Past weeks

Flag for Ukraine Weather for the Past 2 Weeks in Zaporizhia, Ukraine

Now
25 °F

Passing clouds.


Feels Like: 18 °F
Forecast: 34 / 46 °F
Wind: 6 mph from Southeast

Location: Zaporizhzhia / Mokraya

Current Time: Feb 9, 2016 at 2:11:47 AM

Latest Report: Feb 9, 2016 at 1:00 AM


Visibility: N/A

Pressure: 30.36 "Hg

Humidity: 80%

Dew point: 19 °F

Location of ZaporizhiaLocation

Historic Weather in Zaporizhia — Graph

°F

Zaporizhia Temperature Yesterday

Maximum temperature yesterday: 39 °F (at 2:30 PM)
Minimum temperature yesterday: 23 °F (at 5:00 AM)
Average temperature yesterday: 30 °F

High & Low Weather Summary for the Past Weeks

 TemperatureHumidityPressure
High45 °F (Feb 3, 2:30 PM)100% (Jan 25, 6:30 AM)30.48 "Hg (Jan 25, 6:30 AM)
Low-2 °F (Jan 25, 2:00 AM)42% (Feb 8, 2:30 PM)29.71 "Hg (Feb 4, 3:30 PM)
Average30 °F87%30.14 "Hg
* Reported Jan 25 1:00 AM — Feb 9 1:00 AM, Zaporizhia, Weather by CustomWeather, © 2016

Note: Actual official high and low records may vary slightly from our data, if they occured in-between our weather recording intervals... More about our weather records

Advertising

Zaporizhia Weather History for the Previous 24 Hours

 ConditionsComfort  
Time TempWeatherWind HumidityBarometerVisibility
1:00 AM
Tue, Feb 9
25 °FPassing clouds.6 mph80%30.36 "HgN/A
12:00 AM25 °FClear.3 mph74%30.39 "Hg10 mi
11:00 PM
Mon, Feb 8
27 °FClear.3 mph74%30.39 "Hg10 mi
10:00 PM28 °FPassing clouds.6 mph69%30.39 "HgN/A
9:00 PM28 °FPassing clouds.3 mph74%30.39 "HgN/A
8:30 PM30 °FClear.6 mph75%30.39 "Hg10 mi
8:00 PM30 °FPassing clouds.6 mph75%30.39 "HgN/A
7:30 PM30 °FClear.8 mph75%30.39 "Hg10 mi
7:00 PM32 °FPassing clouds.8 mph75%30.42 "HgN/A
6:30 PM32 °FClear.6 mph75%30.42 "Hg10 mi
6:00 PM32 °FClear.6 mph75%30.42 "Hg10 mi
5:30 PM32 °FClear.3 mph69%30.42 "Hg10 mi
5:00 PM34 °FClear.3 mph60%30.42 "Hg10 mi
4:30 PM36 °FPassing clouds.6 mph52%30.42 "HgN/A
4:00 PM37 °FPassing clouds.8 mph48%30.39 "HgN/A
3:30 PM37 °FPassing clouds.8 mph48%30.42 "HgN/A
3:00 PM37 °FPassing clouds.8 mph45%30.42 "HgN/A
2:30 PM39 °FPassing clouds.10 mph42%30.42 "HgN/A
2:00 PM37 °FPassing clouds.10 mph45%30.42 "HgN/A
1:30 PM37 °FPassing clouds.10 mph45%30.42 "HgN/A
1:00 PM37 °FPassing clouds.8 mph45%30.42 "HgN/A
12:30 PM37 °FPassing clouds.10 mph48%30.45 "HgN/A
12:00 PM37 °FPassing clouds.10 mph52%30.45 "HgN/A
11:30 AM36 °FPassing clouds.8 mph65%30.45 "HgN/A
11:00 AM36 °FPassing clouds.8 mph65%30.45 "HgN/A
10:30 AM34 °FPassing clouds.8 mph70%30.45 "HgN/A
10:00 AM34 °FPassing clouds.8 mph75%30.45 "HgN/A
9:30 AM32 °FPassing clouds.6 mph80%30.45 "HgN/A
9:00 AM30 °FPassing clouds.3 mph86%30.45 "HgN/A
8:30 AM28 °FPassing clouds.3 mph93%30.45 "HgN/A
8:00 AM25 °FSunny.3 mph93%30.45 "Hg10 mi
7:30 AM23 °FSunny.3 mph93%30.45 "Hg10 mi
7:00 AM23 °FSunny.3 mph93%30.45 "Hg10 mi
6:30 AM23 °FClear.1 mph93%30.45 "Hg10 mi
6:00 AM23 °FClear.3 mph93%30.45 "Hg10 mi
5:30 AM23 °FClear.No wind93%30.45 "Hg10 mi
5:00 AM23 °FClear.No wind93%30.45 "Hg10 mi
4:00 AM25 °FClear.1 mph86%30.42 "Hg10 mi
3:00 AM25 °FClear.1 mph86%30.42 "Hg10 mi
2:30 AM25 °FClear.3 mph86%30.45 "Hg10 mi
2:00 AM25 °FClear.3 mph86%30.45 "Hg10 mi
Weather by CustomWeather, © 2016

See weather overviewHow to use our weather pages